TimeEDT,TemperatureF,Dew PointF,Humidity,Sea Level PressureIn,VisibilityMPH,Wind Direction,Wind SpeedMPH,Gust SpeedMPH,PrecipitationIn,Events,Conditions,WindDirDegrees,DateUTC
12:20 AM,46.4,42.8,87,29.87,10.0,WNW,13.8,17.3,N/A,,Overcast,300,2013-03-19 04:20:00
12:53 AM,45.0,39.0,80,29.89,10.0,NW,9.2,-,N/A,,Overcast,310,2013-03-19 04:53:00
1:53 AM,42.1,34.0,73,29.94,10.0,WNW,11.5,-,N/A,,Overcast,300,2013-03-19 05:53:00
2:12 AM,41.0,33.8,76,29.94,10.0,NW,6.9,-,N/A,,Scattered Clouds,310,2013-03-19 06:12:00
2:53 AM,39.0,33.1,79,29.97,10.0,WNW,4.6,-,N/A,,Clear,290,2013-03-19 06:53:00
3:53 AM,37.0,34.0,89,29.99,10.0,West,4.6,-,N/A,,Clear,260,2013-03-19 07:53:00
4:53 AM,37.0,33.1,86,29.99,10.0,SW,3.5,-,N/A,,Clear,220,2013-03-19 08:53:00
5:53 AM,36.0,32.0,86,30.01,10.0,SW,3.5,-,N/A,,Clear,230,2013-03-19 09:53:00
6:53 AM,34.0,32.0,92,30.01,10.0,Calm,Calm,-,N/A,,Clear,0,2013-03-19 10:53:00
7:53 AM,34.0,30.9,89,30.02,10.0,SSW,4.6,-,N/A,,Clear,210,2013-03-19 11:53:00
8:53 AM,37.0,33.1,86,30.03,10.0,SSW,4.6,-,N/A,,Clear,200,2013-03-19 12:53:00
9:53 AM,39.9,33.1,77,30.06,10.0,West,10.4,16.1,N/A,,Clear,270,2013-03-19 13:53:00
10:53 AM,42.1,28.9,60,30.07,10.0,West,13.8,-,N/A,,Clear,260,2013-03-19 14:53:00
11:53 AM,44.1,26.1,49,30.06,10.0,WNW,13.8,-,N/A,,Clear,290,2013-03-19 15:53:00
12:53 PM,46.9,25.0,42,30.07,10.0,WNW,16.1,21.9,N/A,,Clear,300,2013-03-19 16:53:00
1:53 PM,48.0,18.0,30,30.09,10.0,WNW,20.7,29.9,N/A,,Clear,290,2013-03-19 17:53:00
2:53 PM,48.9,16.0,27,30.09,10.0,WNW,19.6,29.9,N/A,,Clear,290,2013-03-19 18:53:00
3:53 PM,50.0,15.1,25,30.10,10.0,West,17.3,26.5,N/A,,Clear,280,2013-03-19 19:53:00
4:53 PM,50.0,10.9,21,30.11,10.0,NNW,12.7,23.0,N/A,,Clear,330,2013-03-19 20:53:00
5:53 PM,48.9,6.1,18,30.12,10.0,NNW,20.7,27.6,N/A,,Clear,330,2013-03-19 21:53:00
6:53 PM,46.9,6.1,19,30.13,10.0,NW,13.8,-,N/A,,Clear,310,2013-03-19 22:53:00
7:53 PM,44.1,9.0,24,30.14,10.0,NW,6.9,-,N/A,,Scattered Clouds,310,2013-03-19 23:53:00
8:53 PM,42.1,10.0,27,30.14,10.0,NW,4.6,-,N/A,,Mostly Cloudy,310,2013-03-20 00:53:00
9:53 PM,39.9,10.0,29,30.15,10.0,WNW,3.5,-,N/A,,Clear,290,2013-03-20 01:53:00
10:53 PM,37.9,12.0,35,30.15,10.0,Calm,Calm,-,N/A,,Partly Cloudy,0,2013-03-20 02:53:00
11:53 PM,36.0,15.1,43,30.16,10.0,Calm,Calm,-,N/A,,Clear,0,2013-03-20 03:53:00